This is the latest recevied weather packets stored in our database for station/object KE8AFF-13. If no packets are shown the sender has not sent any weather packets the latest 10 day(s).
| Time | Temp. | Humidity | Pressure | Rain* | Wind** | Luminosity | Snow |
|---|---|---|---|---|---|---|---|
| 1778071687 | 7.22° C | 90% | 1011.1 hPa | 0 mm | - | 100 W/m² | - |
| 1778071383 | 7.22° C | 91% | 1010.9 hPa | 0 mm | - | 82 W/m² | - |
| 1778071081 | 7.22° C | 91% | 1010.8 hPa | 0 mm | - | 77 W/m² | - |
| 1778070780 | 7.22° C | 92% | 1010.5 hPa | 0 mm | - | 87 W/m² | - |
| 1778070476 | 6.67° C | 92% | 1010.7 hPa | 0 mm | - | 80 W/m² | - |
| 1778070173 | 6.67° C | 93% | 1010.5 hPa | 0 mm | - | 71 W/m² | - |
| 1778069872 | 6.67° C | 93% | 1010.7 hPa | 0 mm | - | 44 W/m² | - |
| 1778069568 | 6.67° C | 93% | 1010.3 hPa | 0 mm | - | 42 W/m² | - |
| 1778069266 | 6.67° C | 93% | 1010.3 hPa | 0 mm | - | 23 W/m² | - |
| 1778068964 | 6.67° C | 94% | 1010 hPa | 0 mm | - | 23 W/m² | - |
| 1778068661 | 6.67° C | 93% | 1010 hPa | 0 mm | - | 52 W/m² | - |
| 1778068359 | 6.67° C | 93% | 1009.8 hPa | 0 mm | - | 21 W/m² | - |
| 1778068056 | 6.11° C | 93% | 1009.7 hPa | 0 mm | - | 35 W/m² | - |
| 1778067753 | 6.11° C | 93% | 1009.6 hPa | 0 mm | - | 39 W/m² | - |
| 1778067452 | 6.11° C | 94% | 1009.3 hPa | 0 mm | - | 38 W/m² | - |
| 1778067149 | 6.11° C | 94% | 1009.5 hPa | 0 mm | - | 32 W/m² | - |
| 1778066845 | 6.11° C | 95% | 1009.5 hPa | 0 mm | - | 23 W/m² | - |
| 1778066543 | 5.56° C | 95% | 1009.2 hPa | 0 mm | - | 31 W/m² | - |
| 1778066240 | 5.56° C | 96% | 1009.3 hPa | 0 mm | - | 27 W/m² | - |
| 1778065939 | 5.56° C | 97% | 1009.3 hPa | 0 mm | - | 11 W/m² | - |
| 1778065635 | 5.56° C | 98% | 1009.4 hPa | 0 mm | - | 10 W/m² | - |
| 1778065333 | 5.56° C | 99% | 1009.6 hPa | 0 mm | - | 8 W/m² | - |
| 1778065029 | 5° C | 99% | 1010 hPa | 0 mm | - | 3 W/m² | - |
| 1778064726 | 5° C | 99% | 1009.8 hPa | 0 mm | - | 1 W/m² | - |
| 1778064424 | 5° C | 99% | 1009.3 hPa | 0 mm | - | 0 W/m² | - |
* Rain latest hour (hover to see other rain measurements)
** Current wind speed in m/s (hover to see current wind gust speed)